Radiation Dose measured at Intake/Vertical shaft monitor
Date,Time,Intake(cps),Vertical shaft(cps),Rain
2024/03/10,00:00,5.2,4.5,No
2024/03/10,00:10,5.1,4.7,No
2024/03/10,00:20,5.2,4.6,No
2024/03/10,00:30,4.9,4.9,No
2024/03/10,00:40,5.2,4.8,No
2024/03/10,00:50,5.0,4.6,No
2024/03/10,01:00,5.1,4.6,No
2024/03/10,01:10,5.0,4.7,No
2024/03/10,01:20,5.0,4.8,No
2024/03/10,01:30,5.1,4.7,No
2024/03/10,01:40,4.9,4.5,No
2024/03/10,01:50,4.9,4.6,No
2024/03/10,02:00,5.1,4.8,No
2024/03/10,02:10,5.0,4.6,No
2024/03/10,02:20,4.8,4.5,No
2024/03/10,02:30,4.8,4.5,No
2024/03/10,02:40,4.9,4.6,No
2024/03/10,02:50,4.9,4.6,No
2024/03/10,03:00,4.9,4.6,No
2024/03/10,03:10,4.9,4.7,No
2024/03/10,03:20,5.0,4.6,No
2024/03/10,03:30,4.8,4.5,No
2024/03/10,03:40,4.7,4.6,No
2024/03/10,03:50,4.7,4.4,No
2024/03/10,04:00,4.9,4.5,No
2024/03/10,04:10,4.9,4.6,No
2024/03/10,04:20,4.9,4.6,No
2024/03/10,04:30,4.9,4.7,No
2024/03/10,04:40,4.9,4.7,No
2024/03/10,04:50,4.9,4.6,No
2024/03/10,05:00,4.9,4.6,No
2024/03/10,05:10,4.9,4.7,No
2024/03/10,05:20,4.8,4.7,No
2024/03/10,05:30,5.1,4.6,No
2024/03/10,05:40,5.1,4.7,No
2024/03/10,05:50,5.1,4.6,No
2024/03/10,06:00,5.0,4.6,No
2024/03/10,06:10,4.9,4.6,No
2024/03/10,06:20,4.8,4.5,No
2024/03/10,06:30,4.9,4.5,No
2024/03/10,06:40,5.0,4.4,No
2024/03/10,06:50,4.9,4.4,No
2024/03/10,07:00,4.8,4.5,No
2024/03/10,07:10,4.9,4.6,No
2024/03/10,07:20,4.9,4.6,No
2024/03/10,07:30,4.9,4.6,No
2024/03/10,07:40,5.0,4.5,No
2024/03/10,07:50,4.8,4.5,No
2024/03/10,08:00,4.8,4.5,No
2024/03/10,08:10,4.9,4.7,No
2024/03/10,08:20,4.8,4.7,No
2024/03/10,08:30,5.0,4.5,No
2024/03/10,08:40,5.0,4.5,No
2024/03/10,08:50,4.8,4.5,No
2024/03/10,09:00,5.0,4.6,No
2024/03/10,09:10,5.1,4.6,No
2024/03/10,09:20,5.0,4.7,No
2024/03/10,09:30,4.9,4.6,No
2024/03/10,09:40,4.9,4.6,No
2024/03/10,09:50,4.9,4.7,No
2024/03/10,10:00,4.9,4.6,No
2024/03/10,10:10,5.0,4.5,No
2024/03/10,10:20,4.8,4.5,No
2024/03/10,10:30,4.8,4.6,No
2024/03/10,10:40,5.0,4.5,No
2024/03/10,10:50,5.0,4.7,No
2024/03/10,11:00,4.9,4.6,No
2024/03/10,11:10,4.9,4.6,No
2024/03/10,11:20,4.9,4.7,No
2024/03/10,11:30,5.0,4.6,No
2024/03/10,11:40,5.0,4.5,No
2024/03/10,11:50,4.9,4.6,No
2024/03/10,12:00,5.0,4.7,No
2024/03/10,12:10,5.0,4.6,No
2024/03/10,12:20,4.9,4.5,No
2024/03/10,12:30,5.0,4.6,No
2024/03/10,12:40,5.0,4.6,No
2024/03/10,12:50,4.9,4.7,Yes
2024/03/10,13:00,4.9,4.5,No
2024/03/10,13:10,4.9,4.5,No
2024/03/10,13:20,4.9,4.5,No
2024/03/10,13:30,4.8,4.6,No
2024/03/10,13:40,4.8,4.6,No
2024/03/10,13:50,4.8,4.7,No
2024/03/10,14:00,4.9,4.7,No
2024/03/10,14:10,4.8,4.5,No
2024/03/10,14:20,4.7,4.7,No
2024/03/10,14:30,5.0,4.6,No
2024/03/10,14:40,4.9,4.6,No
2024/03/10,14:50,4.8,4.6,No
2024/03/10,15:00,4.9,4.5,No
2024/03/10,15:10,4.9,4.6,No
2024/03/10,15:20,4.9,4.7,No
2024/03/10,15:30,5.0,4.5,No
2024/03/10,15:40,5.0,4.7,No
2024/03/10,15:50,4.9,4.5,No
2024/03/10,16:00,4.9,4.5,No
2024/03/10,16:10,4.9,4.5,No
2024/03/10,16:20,4.8,4.5,No
2024/03/10,16:30,5.0,4.7,No
2024/03/10,16:40,4.9,4.7,No
2024/03/10,16:50,4.8,4.6,No
2024/03/10,17:00,4.8,4.5,No
2024/03/10,17:10,4.8,4.5,No
2024/03/10,17:20,4.9,4.6,No
2024/03/10,17:30,5.0,4.7,No
2024/03/10,17:40,5.0,4.6,No
2024/03/10,17:50,4.9,4.4,No
2024/03/10,18:00,4.9,4.5,No
2024/03/10,18:10,5.0,4.6,No
2024/03/10,18:20,5.0,4.6,No
2024/03/10,18:30,5.0,4.5,No
2024/03/10,18:40,4.9,4.6,No
2024/03/10,18:50,5.0,4.5,No
2024/03/10,19:00,5.0,4.5,No
2024/03/10,19:10,5.0,4.5,No
2024/03/10,19:20,4.9,4.6,No
2024/03/10,19:30,4.9,4.4,No
2024/03/10,19:40,4.9,4.6,No
2024/03/10,19:50,5.0,4.5,No
2024/03/10,20:00,5.1,4.6,No
2024/03/10,20:10,5.1,4.6,No
2024/03/10,20:20,5.0,4.6,No
2024/03/10,20:30,5.2,4.6,No
2024/03/10,20:40,5.0,4.6,No
2024/03/10,20:50,4.9,4.7,No
2024/03/10,21:00,5.0,4.6,No
2024/03/10,21:10,5.2,4.6,No
2024/03/10,21:20,5.2,4.8,No
2024/03/10,21:30,5.2,4.7,No
2024/03/10,21:40,5.1,4.6,No
2024/03/10,21:50,5.3,4.8,No
2024/03/10,22:00,5.3,4.7,No
2024/03/10,22:10,5.4,4.7,No
2024/03/10,22:20,5.4,4.7,No
2024/03/10,22:30,5.5,4.7,No
2024/03/10,22:40,5.8,4.7,No
2024/03/10,22:50,5.9,4.9,No
2024/03/10,23:00,6.0,4.8,No
2024/03/10,23:10,5.9,4.9,No
2024/03/10,23:20,6.2,4.9,No
2024/03/10,23:30,6.0,5.1,No
2024/03/10,23:40,6.1,4.8,No
2024/03/10,23:50,6.3,5.0,No
